マクノート彗星

C/2007 M1 ( McNaught )

English version
Home page
Updated on July 21, 2011

---------------------------------------------------------------------

・ プロフィール

発見日 2007年6月16日
発見光度 18.8等
発見者 R. H. McNaught (Siding Spring)

・ 写真集

・ 軌道要素

Epoch 2008 Aug. 2.0 TT = JDT 2454680.5
T 2008 Aug. 11.45564 TT                                 MPC
q   7.4746296            (2000.0)            P               Q
z  +0.0006243      Peri.   52.61608     +0.17622724     -0.91851781
 +/-0.0000016      Node   326.80765     -0.97472473     -0.11267512
e   0.9953334      Incl.  139.72092     +0.13731594     +0.37898462
From 204 observations 2007 June 16-2011 May 7, mean residual 0".6.

・ 光度変化

        m1 = 5.5 + 5 logΔ + 10.0 log r

---------------------------------------------------------------------

軌道要素はM.P.E.C. 2011-J52に掲載されたものです。
光度グラフはComet for Windowsで作成したものです。

---------------------------------------------------------------------

Copyright(C) Seiichi Yoshida (comet@aerith.net). All rights reserved.